• în România
  • Lista ţărilor
  • Pe 7 zile
  • Temperatura apei
  • Hartă satelitară
  • Meteo pe hartă
  • Widget-uri
  • user-avatar
    Intrare

    Meteo pe oră la Mons

    Astăzi, 19 Septembrie, Miercuri

    Timp Temperatura Precipitaţii Vânt Presiune Umiditate
    00:00 +17°C° 0 mm 2 m/s 760 mmHg 87%
    01:00 +17°C° 0 mm 2 m/s 760 mmHg 87%
    02:00 +17°C° 0 mm 3 m/s 760 mmHg 88%
    03:00 +17°C° 0 mm 3 m/s 760 mmHg 88%
    04:00 +17°C° 0 mm 3 m/s 760 mmHg 90%
    05:00 +16°C° 0 mm 3 m/s 759 mmHg 91%
    06:00 +16°C° 0 mm 3 m/s 759 mmHg 93%
    07:00 +18°C° 0 mm 4 m/s 760 mmHg 85%
    08:00 +20°C° 0 mm 5 m/s 760 mmHg 77%
    09:00 +21°C° 0 mm 6 m/s 760 mmHg 69%
    10:00 +22°C° 0 mm 6 m/s 760 mmHg 65%
    11:00 +23°C° 0 mm 6 m/s 760 mmHg 61%
    12:00 +24°C° 0 mm 6 m/s 760 mmHg 57%
    13:00 +24°C° 0 mm 6 m/s 760 mmHg 56%
    14:00 +24°C° 0 mm 6 m/s 760 mmHg 56%
    15:00 +24°C° 0 mm 6 m/s 760 mmHg 56%
    16:00 +23°C° 0 mm 5 m/s 760 mmHg 61%
    17:00 +22°C° 0 mm 4 m/s 760 mmHg 67%
    18:00 +20°C° 0 mm 3 m/s 760 mmHg 72%
    19:00 +20°C° 0 mm 3 m/s 760 mmHg 74%
    20:00 +19°C° 0 mm 3 m/s 761 mmHg 77%
    21:00 +18°C° 0 mm 3 m/s 761 mmHg 80%
    22:00 +18°C° 0 mm 3 m/s 761 mmHg 82%
    23:00 +17°C° 0 mm 3 m/s 761 mmHg 85%

    Mâine, 20 Septembrie, Joi

    Timp Temperatura Precipitaţii Vânt Presiune Umiditate
    00:00 +17°C° 0 mm 3 m/s 761 mmHg 88%
    01:00 +17°C° 0 mm 3 m/s 761 mmHg 89%
    02:00 +16°C° 0 mm 3 m/s 761 mmHg 91%
    03:00 +16°C° 0 mm 3 m/s 761 mmHg 93%
    04:00 +16°C° 0 mm 3 m/s 761 mmHg 93%
    05:00 +16°C° 0 mm 3 m/s 761 mmHg 93%
    06:00 +15°C° 0 mm 4 m/s 761 mmHg 94%
    07:00 +17°C° 0 mm 4 m/s 761 mmHg 86%
    08:00 +19°C° 0 mm 5 m/s 761 mmHg 79%
    09:00 +21°C° 0 mm 6 m/s 761 mmHg 72%
    10:00 +22°C° 0 mm 6 m/s 760 mmHg 67%
    11:00 +23°C° 0 mm 6 m/s 760 mmHg 63%
    12:00 +24°C° 0 mm 6 m/s 759 mmHg 58%
    13:00 +26°C° 0 mm 6 m/s 759 mmHg 57%
    14:00 +26°C° 0 mm 6 m/s 758 mmHg 56%
    15:00 +26°C° 0 mm 6 m/s 758 mmHg 54%
    16:00 +25°C° 0 mm 5 m/s 757 mmHg 59%
    17:00 +22°C° 0 mm 4 m/s 757 mmHg 63%
    18:00 +21°C° 0 mm 3 m/s 756 mmHg 67%
    19:00 +21°C° 0 mm 4 m/s 756 mmHg 64%
    20:00 +21°C° 0 mm 4 m/s 755 mmHg 61%
    21:00 +21°C° 0 mm 5 m/s 755 mmHg 59%
    22:00 +21°C° 0 mm 5 m/s 754 mmHg 58%
    23:00 +21°C° 0 mm 6 m/s 754 mmHg 57%

    Poimâine, 21 Septembrie, Vineri

    Timp Temperatura Precipitaţii Vânt Presiune Umiditate
    00:00 +21°C° 0 mm 6 m/s 753 mmHg 57%
    01:00 +21°C° 0 mm 7 m/s 753 mmHg 58%
    02:00 +21°C° 0 mm 7 m/s 752 mmHg 60%
    03:00 +20°C° 0 mm 8 m/s 751 mmHg 62%
    04:00 +20°C° 0.6 mm 8 m/s 752 mmHg 68%
    05:00 +18°C° 0.6 mm 8 m/s 752 mmHg 75%
    06:00 +18°C° 0.6 mm 9 m/s 752 mmHg 81%
    07:00 +16°C° 0.6 mm 8 m/s 753 mmHg 78%
    08:00 +15°C° 0.6 mm 7 m/s 754 mmHg 74%
    09:00 +14°C° 0.6 mm 6 m/s 755 mmHg 71%
    10:00 +15°C° 0 mm 6 m/s 756 mmHg 64%
    11:00 +16°C° 0 mm 7 m/s 756 mmHg 57%
    12:00 +17°C° 0 mm 7 m/s 757 mmHg 49%
    13:00 +17°C° 0 mm 7 m/s 757 mmHg 49%
    14:00 +17°C° 0 mm 7 m/s 758 mmHg 48%
    15:00 +17°C° 0 mm 8 m/s 758 mmHg 47%
    16:00 +16°C° 0 mm 7 m/s 758 mmHg 50%
    17:00 +15°C° 0 mm 6 m/s 759 mmHg 54%
    18:00 +13°C° 0 mm 5 m/s 759 mmHg 57%
    19:00 +13°C° 0 mm 5 m/s 760 mmHg 60%
    20:00 +12°C° 0 mm 5 m/s 761 mmHg 63%
    21:00 +12°C° 0 mm 4 m/s 761 mmHg 66%
    22:00 +12°C° 0 mm 4 m/s 762 mmHg 68%
    23:00 +11°C° 0 mm 4 m/s 762 mmHg 71%

    22 Septembrie, Sâmbătă

    Timp Temperatura Precipitaţii Vânt Presiune Umiditate
    00:00 +11°C° 0 mm 4 m/s 762 mmHg 73%
    01:00 +10°C° 0 mm 4 m/s 763 mmHg 76%
    02:00 +10°C° 0 mm 3 m/s 763 mmHg 79%
    03:00 +10°C° 0 mm 3 m/s 763 mmHg 81%
    04:00 +9°C° 0 mm 3 m/s 763 mmHg 83%
    05:00 +9°C° 0 mm 3 m/s 764 mmHg 85%
    06:00 +9°C° 0 mm 3 m/s 764 mmHg 86%
    07:00 +11°C° 0 mm 3 m/s 764 mmHg 78%
    08:00 +13°C° 0 mm 4 m/s 765 mmHg 69%
    09:00 +15°C° 0 mm 4 m/s 765 mmHg 61%
    10:00 +16°C° 0.1 mm 5 m/s 765 mmHg 58%
    11:00 +16°C° 0.1 mm 5 m/s 765 mmHg 54%
    12:00 +17°C° 0.1 mm 5 m/s 765 mmHg 51%
    13:00 +18°C° 0.1 mm 4 m/s 765 mmHg 51%
    14:00 +18°C° 0.1 mm 4 m/s 765 mmHg 50%
    15:00 +18°C° 0.1 mm 4 m/s 765 mmHg 49%
    16:00 +16°C° 0 mm 3 m/s 765 mmHg 54%
    17:00 +15°C° 0 mm 2 m/s 765 mmHg 59%
    18:00 +13°C° 0 mm 1 m/s 765 mmHg 64%
    19:00 +13°C° 0 mm 1 m/s 765 mmHg 66%
    20:00 +12°C° 0 mm 1 m/s 765 mmHg 68%
    21:00 +12°C° 0 mm 1 m/s 765 mmHg 70%
    22:00 +12°C° 0.1 mm 1 m/s 764 mmHg 69%
    23:00 +12°C° 0.1 mm 1 m/s 764 mmHg 69%

    23 Septembrie, Duminică

    Timp Temperatura Precipitaţii Vânt Presiune Umiditate
    00:00 +12°C° 0.1 mm 2 m/s 764 mmHg 68%
    01:00 +11°C° 0.4 mm 3 m/s 763 mmHg 72%
    02:00 +11°C° 0.4 mm 3 m/s 762 mmHg 76%
    03:00 +11°C° 0.4 mm 4 m/s 761 mmHg 80%
    04:00 +12°C° 0.3 mm 5 m/s 760 mmHg 77%
    05:00 +11°C° 0.3 mm 6 m/s 759 mmHg 75%
    06:00 +11°C° 0.3 mm 7 m/s 758 mmHg 72%
    07:00 +12°C° 0.1 mm 8 m/s 756 mmHg 68%
    08:00 +13°C° 0.1 mm 8 m/s 755 mmHg 65%
    09:00 +15°C° 0.1 mm 9 m/s 753 mmHg 62%
    10:00 +17°C° 0.1 mm 10 m/s 752 mmHg 63%
    11:00 +18°C° 0.1 mm 10 m/s 750 mmHg 64%
    12:00 +21°C° 0.1 mm 11 m/s 748 mmHg 65%
    13:00 +22°C° 0.4 mm 12 m/s 747 mmHg 65%
    14:00 +22°C° 0.4 mm 12 m/s 746 mmHg 65%
    15:00 +23°C° 0.4 mm 13 m/s 744 mmHg 66%
    16:00 +19°C° 0.2 mm 14 m/s 744 mmHg 64%
    17:00 +17°C° 0.2 mm 15 m/s 743 mmHg 63%
    18:00 +14°C° 0.2 mm 15 m/s 743 mmHg 61%
    19:00 +13°C° 0.2 mm 15 m/s 743 mmHg 65%
    20:00 +13°C° 0.2 mm 15 m/s 744 mmHg 68%
    21:00 +12°C° 0.2 mm 14 m/s 744 mmHg 71%
    22:00 +12°C° 0.6 mm 14 m/s 746 mmHg 73%
    23:00 +12°C° 0.6 mm 14 m/s 749 mmHg 75%

    24 Septembrie, Luni

    Timp Temperatura Precipitaţii Vânt Presiune Umiditate
    00:00 +12°C° 0.6 mm 14 m/s 751 mmHg 76%
    01:00 +12°C° 0.2 mm 13 m/s 754 mmHg 75%
    02:00 +12°C° 0.2 mm 11 m/s 757 mmHg 74%
    03:00 +11°C° 0.2 mm 10 m/s 760 mmHg 72%
    04:00 +11°C° 0.1 mm 9 m/s 761 mmHg 72%
    05:00 +11°C° 0.1 mm 8 m/s 763 mmHg 72%
    06:00 +10°C° 0.1 mm 6 m/s 765 mmHg 72%
    07:00 +11°C° 0.1 mm 7 m/s 766 mmHg 68%
    08:00 +12°C° 0.1 mm 7 m/s 767 mmHg 64%
    09:00 +12°C° 0.1 mm 8 m/s 768 mmHg 60%
    10:00 +14°C° 0.1 mm 7 m/s 769 mmHg 60%
    11:00 +14°C° 0.1 mm 7 m/s 770 mmHg 60%
    12:00 +14°C° 0.1 mm 7 m/s 770 mmHg 60%
    13:00 +14°C° 0.1 mm 7 m/s 771 mmHg 59%
    14:00 +14°C° 0.1 mm 7 m/s 771 mmHg 58%
    15:00 +14°C° 0.1 mm 7 m/s 771 mmHg 58%
    16:00 +13°C° 0 mm 5 m/s 772 mmHg 61%
    17:00 +12°C° 0 mm 4 m/s 772 mmHg 65%
    18:00 +11°C° 0 mm 3 m/s 773 mmHg 69%
    19:00 +10°C° 0 mm 3 m/s 773 mmHg 71%
    20:00 +10°C° 0 mm 2 m/s 774 mmHg 73%
    21:00 +10°C° 0 mm 2 m/s 774 mmHg 74%
    22:00 +9°C° 0 mm 2 m/s 774 mmHg 77%
    23:00 +9°C° 0 mm 2 m/s 774 mmHg 79%
    Arată mai mult